QPF
0.00 0.00 0.01 0.01 0.00 0.00 0.01 0.03 0.02 0.02 0.02 0.02 0.04 0.05 0.08 0.08 0.11 0.09 0.08 0.06 0.03 0.02 0.01 0.01 0.01 0.01 0.02 0.01 0.01 0.01 0.01 0.01 0.01 0.01 0.01 0.01 0.01 0.01 0.02 0.03 0.02 0.01 0.02 0.02
0.01 0.01 0.01 0.01 0.01 0.01 0.02 0.04 0.01 0.01 0.01 0.01 0.02 0.02 0.07 0.10 0.10 0.12 0.09 0.06 0.04 0.03 0.02 0.01 0.01 0.01 0.02 0.02 0.02 0.02 0.03 0.02 0.01 0.02 0.02 0.02 0.01 0.01 0.01 0.02 0.02 0.03 0.03 0.04
0.02 0.01 0.01 0.02 0.03 0.05 0.03 0.02 0.01 0.02 0.02 0.01 0.01 0.01 0.04 0.12 0.10 0.10 0.08 0.06 0.05 0.03 0.02 0.02 0.01 0.01 0.01 0.02 0.02 0.03 0.03 0.02 0.01 0.02 0.02 0.02 0.02 0.02 0.03 0.03 0.04 0.05 0.05 0.04
0.03 0.02 0.01 0.01 0.04 0.05 0.02 0.01 0.02 0.02 0.02 0.01 0.01 0.01 0.02 0.07 0.10 0.06 0.05 0.03 0.03 0.04 0.03 0.03 0.03 0.03 0.03 0.03 0.03 0.03 0.03 0.03 0.02 0.02 0.02 0.01 0.02 0.02 0.03 0.04 0.04 0.04 0.04 0.04
0.02 0.02 0.02 0.01 0.02 0.02 0.01 0.01 0.01 0.01 0.01 0.01 0.01 0.03 0.04 0.03 0.03 0.04 0.05 0.06 0.06 0.06 0.05 0.05 0.04 0.04 0.04 0.03 0.03 0.02 0.02 0.03 0.04 0.03 0.02 0.02 0.02 0.02 0.02 0.02 0.02 0.01 0.02 0.02
0.02 0.02 0.01 0.01 0.01 0.01 0.01 0.01 0.01 0.01 0.01 0.01 0.01 0.02 0.04 0.05 0.03 0.04 0.05 0.06 0.06 0.05 0.04 0.03 0.02 0.03 0.03 0.04 0.04 0.03 0.02 0.02 0.03 0.03 0.02 0.02 0.02 0.02 0.02 0.02 0.02 0.02 0.02 0.02
0.01 0.01 0.01 0.01 0.01 0.01 0.01 0.01 0.01 0.01 0.01 0.01 0.01 0.01 0.01 0.02 0.03 0.03 0.06 0.09 0.08 0.07 0.06 0.05 0.04 0.04 0.04 0.04 0.04 0.04 0.04 0.03 0.03 0.03 0.03 0.02 0.03 0.03 0.03 0.02 0.02 0.02 0.03 0.02
0.02 0.02 0.02 0.01 0.00 0.01 0.01 0.01 0.01 0.02 0.01 0.01 0.01 0.01 0.00 0.00 0.01 0.01 0.02 0.04 0.06 0.07 0.09 0.08 0.06 0.04 0.03 0.03 0.04 0.04 0.04 0.04 0.04 0.03 0.03 0.03 0.03 0.03 0.03 0.03 0.02 0.02 0.02 0.02
0.02 0.02 0.01 0.01 0.01 0.01 0.01 0.01 0.01 0.01 0.01 0.01 0.01 0.01 0.01 0.01 0.01 0.01 0.01 0.01 0.02 0.06 0.07 0.06 0.05 0.04 0.04 0.04 0.04 0.03 0.03 0.03 0.03 0.03 0.03 0.03 0.04 0.03 0.03 0.03 0.03 0.02 0.02 0.02
0.04 0.03 0.02 0.02 0.01 0.01 0.01 0.01 0.01 0.01 0.01 0.01 0.01 0.03 0.06 0.04 0.02 0.01 0.01 0.01 0.02 0.04 0.07 0.07 0.07 0.07 0.07 0.06 0.04 0.03 0.02 0.02 0.02 0.02 0.03 0.03 0.04 0.04 0.04 0.03 0.03 0.02 0.02 0.02
0.03 0.02 0.02 0.02 0.02 0.02 0.01 0.01 0.01 0.01 0.01 0.01 0.01 0.01 0.04 0.03 0.02 0.01 0.02 0.02 0.04 0.07 0.06 0.06 0.07 0.08 0.08 0.07 0.05 0.04 0.02 0.01 0.01 0.01 0.01 0.02 0.02 0.03 0.03 0.03 0.03 0.04 0.03 0.03
0.02 0.02 0.03 0.04 0.04 0.03 0.02 0.01 0.01 0.01 0.01 0.01 0.02 0.02 0.02 0.02 0.02 0.02 0.02 0.04 0.04 0.06 0.09 0.09 0.08 0.08 0.07 0.06 0.05 0.04 0.02 0.01 0.01 0.01 0.01 0.01 0.01 0.01 0.02 0.02 0.02 0.03 0.03 0.03
0.02 0.02 0.02 0.02 0.02 0.02 0.02 0.02 0.02 0.01 0.01 0.01 0.02 0.03 0.03 0.03 0.04 0.04 0.04 0.05 0.05 0.05 0.07 0.10 0.09 0.07 0.06 0.06 0.05 0.04 0.02 0.02 0.02 0.01 0.01 0.00 0.01 0.01 0.01 0.02 0.02 0.02 0.02 0.03
0.01 0.01 0.01 0.01 0.01 0.01 0.02 0.02 0.01 0.01 0.01 0.01 0.02 0.03 0.04 0.03 0.04 0.05 0.07 0.09 0.07 0.06 0.06 0.07 0.07 0.07 0.06 0.05 0.04 0.04 0.04 0.04 0.04 0.03 0.01 0.01 0.00 0.00 0.01 0.01 0.02 0.02 0.02 0.03
0.01 0.01 0.01 0.01 0.01 0.01 0.01 0.01 0.01 0.01 0.01 0.02 0.03 0.04 0.05 0.04 0.04 0.05 0.07 0.10 0.09 0.07 0.07 0.06 0.05 0.05 0.05 0.04 0.03 0.04 0.05 0.06 0.07 0.05 0.04 0.03 0.01 0.01 0.01 0.01 0.01 0.02 0.02 0.03
0.01 0.01 0.01 0.01 0.01 0.01 0.01 0.01 0.01 0.02 0.03 0.04 0.03 0.03 0.04 0.04 0.04 0.05 0.05 0.05 0.06 0.06 0.06 0.05 0.03 0.03 0.03 0.03 0.03 0.03 0.05 0.06 0.07 0.06 0.05 0.05 0.04 0.03 0.02 0.02 0.02 0.01 0.01 0.01
0.01 0.01 0.01 0.01 0.01 0.01 0.01 0.02 0.02 0.03 0.06 0.04 0.02 0.03 0.04 0.03 0.02 0.03 0.03 0.03 0.04 0.05 0.05 0.03 0.02 0.02 0.03 0.03 0.03 0.04 0.04 0.05 0.06 0.07 0.07 0.06 0.06 0.04 0.03 0.03 0.03 0.03 0.02 0.02
0.01 0.01 0.01 0.01 0.02 0.02 0.02 0.02 0.02 0.03 0.05 0.04 0.02 0.02 0.04 0.05 0.04 0.02 0.02 0.02 0.02 0.03 0.03 0.02 0.02 0.02 0.02 0.03 0.03 0.04 0.04 0.04 0.04 0.04 0.04 0.04 0.04 0.04 0.04 0.03 0.02 0.02 0.02 0.02
0.01 0.01 0.01 0.02 0.02 0.03 0.02 0.02 0.02 0.02 0.04 0.04 0.02 0.02 0.03 0.05 0.05 0.03 0.02 0.02 0.02 0.02 0.02 0.02 0.02 0.03 0.03 0.03 0.03 0.02 0.02 0.03 0.03 0.03 0.03 0.03 0.02 0.02 0.02 0.02 0.03 0.03 0.04 0.05
0.02 0.02 0.01 0.01 0.02 0.02 0.02 0.02 0.01 0.01 0.02 0.04 0.04 0.02 0.03 0.05 0.05 0.04 0.02 0.02 0.02 0.03 0.03 0.04 0.04 0.04 0.03 0.03 0.02 0.02 0.02 0.02 0.03 0.03 0.02 0.02 0.02 0.03 0.02 0.02 0.02 0.02 0.02 0.03
0.02 0.03 0.02 0.02 0.02 0.02 0.02 0.02 0.01 0.01 0.02 0.03 0.03 0.03 0.03 0.03 0.03 0.03 0.02 0.02 0.02 0.03 0.03 0.03 0.03 0.02 0.02 0.02 0.01 0.01 0.01 0.02 0.02 0.02 0.01 0.01 0.02 0.02 0.02 0.02 0.01 0.01 0.02 0.03
0.02 0.03 0.03 0.02 0.02 0.02 0.01 0.01 0.01 0.01 0.01 0.01 0.02 0.02 0.02 0.03 0.03 0.03 0.02 0.02 0.02 0.02 0.01 0.01 0.01 0.01 0.01 0.01 0.01 0.01 0.01 0.01 0.01 0.02 0.02 0.01 0.01 0.02 0.02 0.02 0.01 0.02 0.02 0.03
0.04 0.04 0.03 0.03 0.02 0.01 0.01 0.01 0.01 0.02 0.02 0.02 0.02 0.02 0.02 0.03 0.04 0.04 0.03 0.02 0.02 0.02 0.01 0.01 0.01 0.01 0.01 0.01 0.01 0.01 0.01 0.01 0.02 0.02 0.02 0.02 0.02 0.02 0.02 0.02 0.02 0.03 0.03 0.03
0.06 0.05 0.04 0.03 0.02 0.02 0.02 0.01 0.02 0.02 0.02 0.03 0.03 0.03 0.04 0.04 0.04 0.03 0.03 0.02 0.03 0.03 0.02 0.02 0.01 0.01 0.01 0.01 0.01 0.02 0.02 0.02 0.02 0.02 0.02 0.02 0.02 0.02 0.02 0.02 0.03 0.04 0.03 0.03
0.09 0.06 0.04 0.03 0.02 0.02 0.02 0.02 0.02 0.03 0.03 0.03 0.04 0.04 0.04 0.04 0.04 0.04 0.04 0.03 0.03 0.03 0.03 0.02 0.01 0.01 0.01 0.01 0.01 0.02 0.03 0.03 0.02 0.02 0.02 0.03 0.02 0.03 0.03 0.03 0.03 0.03 0.03 0.02
0.07 0.05 0.04 0.03 0.03 0.03 0.03 0.03 0.02 0.03 0.05 0.07 0.07 0.07 0.06 0.05 0.03 0.03 0.03 0.03 0.03 0.04 0.04 0.03 0.02 0.01 0.01 0.01 0.02 0.02 0.02 0.03 0.03 0.03 0.02 0.03 0.03 0.06 0.09 0.09 0.07 0.06 0.06 0.05
0.04 0.03 0.02 0.02 0.02 0.02 0.02 0.01 0.02 0.02 0.02 0.02 0.03 0.04 0.05 0.06 0.06 0.05 0.03 0.03 0.04 0.03 0.04 0.04 0.03 0.02 0.01 0.02 0.02 0.02 0.02 0.02 0.03 0.03 0.03 0.02 0.03 0.04 0.05 0.08 0.11 0.09 0.06 0.04
MSLP
1009.75 1009.48 1009.27 1009.12 1009.02 1008.92 1008.79 1008.61 1008.36 1008.05 1007.69 1007.34 1007.05 1006.87 1006.84 1006.97 1007.26 1007.68 1008.19 1008.73 1009.26 1009.74 1010.17 1010.53 1010.86 1011.16 1011.48 1011.82 1012.18 1012.56 1012.94 1013.28 1013.57 1013.77 1013.88 1013.90 1013.85 1013.75 1013.63 1013.49 1013.36 1013.23 1013.10 1012.97
1010.50 1010.10 1009.66 1009.18 1008.69 1008.18 1007.66 1007.16 1006.69 1006.26 1005.92 1005.68 1005.58 1005.61 1005.79 1006.09 1006.49 1006.96 1007.44 1007.91 1008.34 1008.73 1009.08 1009.39 1009.71 1010.05 1010.42 1010.84 1011.29 1011.75 1012.20 1012.60 1012.93 1013.18 1013.33 1013.39 1013.39 1013.33 1013.25 1013.15 1013.05 1012.94 1012.83 1012.70
1011.15 1010.62 1009.95 1009.17 1008.32 1007.44 1006.58 1005.80 1005.13 1004.62 1004.29 1004.15 1004.20 1004.42 1004.78 1005.23 1005.72 1006.22 1006.70 1007.11 1007.47 1007.79 1008.08 1008.38 1008.70 1009.08 1009.52 1010.02 1010.55 1011.10 1011.61 1012.07 1012.45 1012.74 1012.93 1013.04 1013.09 1013.09 1013.05 1013.00 1012.93 1012.84 1012.73 1012.60
1011.63 1010.95 1010.06 1009.01 1007.86 1006.68 1005.55 1004.55 1003.74 1003.17 1002.86 1002.82 1003.01 1003.39 1003.90 1004.47 1005.05 1005.59 1006.06 1006.45 1006.77 1007.05 1007.32 1007.61 1007.96 1008.39 1008.90 1009.46 1010.06 1010.66 1011.23 1011.73 1012.14 1012.46 1012.69 1012.84 1012.93 1012.97 1012.98 1012.96 1012.92 1012.85 1012.75 1012.62
1011.86 1011.01 1009.92 1008.65 1007.27 1005.87 1004.56 1003.42 1002.54 1001.96 1001.71 1001.76 1002.08 1002.60 1003.24 1003.92 1004.57 1005.16 1005.64 1006.03 1006.34 1006.61 1006.88 1007.19 1007.58 1008.05 1008.60 1009.22 1009.85 1010.48 1011.06 1011.57 1011.99 1012.32 1012.56 1012.73 1012.85 1012.92 1012.96 1012.98 1012.96 1012.90 1012.80 1012.66
1011.82 1010.79 1009.53 1008.09 1006.55 1005.03 1003.63 1002.45 1001.57 1001.04 1000.86 1001.02 1001.47 1002.11 1002.86 1003.63 1004.35 1004.98 1005.49 1005.90 1006.22 1006.51 1006.81 1007.15 1007.57 1008.07 1008.65 1009.28 1009.92 1010.54 1011.10 1011.58 1011.98 1012.28 1012.51 1012.67 1012.80 1012.88 1012.94 1012.98 1012.97 1012.91 1012.81 1012.65
1011.53 1010.34 1008.95 1007.40 1005.79 1004.24 1002.84 1001.70 1000.88 1000.44 1000.38 1000.65 1001.21 1001.95 1002.79 1003.63 1004.41 1005.08 1005.63 1006.07 1006.42 1006.74 1007.07 1007.44 1007.88 1008.40 1008.98 1009.59 1010.20 1010.78 1011.29 1011.71 1012.05 1012.31 1012.50 1012.64 1012.75 1012.83 1012.89 1012.91 1012.90 1012.84 1012.72 1012.54
1011.07 1009.76 1008.29 1006.71 1005.11 1003.60 1002.28 1001.24 1000.55 1000.24 1000.29 1000.68 1001.33 1002.15 1003.04 1003.93 1004.75 1005.45 1006.03 1006.49 1006.88 1007.23 1007.59 1007.99 1008.44 1008.96 1009.52 1010.09 1010.64 1011.15 1011.58 1011.93 1012.20 1012.39 1012.52 1012.62 1012.69 1012.74 1012.78 1012.79 1012.76 1012.68 1012.54 1012.34
1010.55 1009.18 1007.69 1006.14 1004.63 1003.23 1002.06 1001.18 1000.64 1000.46 1000.64 1001.11 1001.83 1002.69 1003.61 1004.51 1005.33 1006.04 1006.63 1007.11 1007.52 1007.90 1008.28 1008.69 1009.14 1009.64 1010.16 1010.68 1011.16 1011.58 1011.93 1012.20 1012.38 1012.50 1012.57 1012.62 1012.64 1012.66 1012.66 1012.64 1012.58 1012.47 1012.30 1012.07
1010.07 1008.71 1007.28 1005.83 1004.46 1003.24 1002.25 1001.55 1001.17 1001.13 1001.40 1001.94 1002.68 1003.54 1004.44 1005.31 1006.10 1006.79 1007.37 1007.85 1008.27 1008.65 1009.04 1009.45 1009.89 1010.35 1010.82 1011.28 1011.68 1012.03 1012.30 1012.48 1012.59 1012.65 1012.66 1012.65 1012.63 1012.60 1012.56 1012.49 1012.39 1012.24 1012.04 1011.78
1009.69 1008.41 1007.11 1005.83 1004.65 1003.64 1002.86 1002.34 1002.12 1002.19 1002.53 1003.09 1003.82 1004.63 1005.47 1006.27 1007.00 1007.64 1008.18 1008.64 1009.04 1009.42 1009.80 1010.19 1010.60 1011.02 1011.44 1011.83 1012.17 1012.44 1012.64 1012.76 1012.82 1012.82 1012.79 1012.73 1012.67 1012.59 1012.50 1012.39 1012.24 1012.04 1011.79 1011.50
1009.41 1008.28 1007.16 1006.10 1005.15 1004.37 1003.80 1003.46 1003.38 1003.54 1003.92 1004.47 1005.14 1005.88 1006.62 1007.33 1007.97 1008.53 1009.01 1009.42 1009.80 1010.15 1010.50 1010.86 1011.23 1011.61 1011.97 1012.30 1012.58 1012.80 1012.95 1013.03 1013.04 1013.01 1012.95 1012.86 1012.76 1012.65 1012.51 1012.35 1012.14 1011.89 1011.60 1011.26
1009.15 1008.22 1007.33 1006.52 1005.82 1005.28 1004.91 1004.75 1004.79 1005.01 1005.41 1005.93 1006.53 1007.17 1007.81 1008.40 1008.94 1009.42 1009.83 1010.18 1010.51 1010.82 1011.13 1011.45 1011.78 1012.10 1012.41 1012.69 1012.92 1013.09 1013.20 1013.25 1013.24 1013.20 1013.11 1013.01 1012.88 1012.73 1012.55 1012.34 1012.08 1011.78 1011.44 1011.06
1008.82 1008.12 1007.47 1006.91 1006.47 1006.16 1006.00 1006.00 1006.14 1006.43 1006.83 1007.31 1007.85 1008.39 1008.93 1009.42 1009.86 1010.25 1010.59 1010.89 1011.16 1011.42 1011.69 1011.96 1012.23 1012.49 1012.75 1012.97 1013.15 1013.29 1013.37 1013.40 1013.39 1013.33 1013.24 1013.12 1012.97 1012.79 1012.58 1012.32 1012.02 1011.68 1011.29 1010.88
1008.32 1007.84 1007.44 1007.14 1006.94 1006.85 1006.88 1007.03 1007.28 1007.63 1008.04 1008.50 1008.98 1009.45 1009.90 1010.31 1010.68 1010.99 1011.27 1011.51 1011.73 1011.94 1012.15 1012.36 1012.58 1012.78 1012.98 1013.15 1013.29 1013.39 1013.45 1013.46 1013.44 1013.38 1013.29 1013.16 1012.99 1012.79 1012.55 1012.26 1011.92 1011.54 1011.13 1010.68
1007.61 1007.34 1007.16 1007.09 1007.11 1007.23 1007.44 1007.73 1008.09 1008.50 1008.94 1009.40 1009.85 1010.28 1010.67 1011.02 1011.33 1011.59 1011.82 1012.01 1012.19 1012.35 1012.50 1012.66 1012.81 1012.95 1013.09 1013.21 1013.30 1013.37 1013.41 1013.41 1013.38 1013.31 1013.21 1013.08 1012.90 1012.68 1012.41 1012.10 1011.74 1011.34 1010.91 1010.46
1006.73 1006.63 1006.64 1006.76 1006.98 1007.28 1007.66 1008.08 1008.54 1009.02 1009.51 1009.98 1010.43 1010.84 1011.21 1011.52 1011.80 1012.02 1012.21 1012.36 1012.49 1012.61 1012.71 1012.81 1012.90 1012.99 1013.07 1013.14 1013.20 1013.23 1013.25 1013.23 1013.19 1013.12 1013.01 1012.86 1012.67 1012.44 1012.16 1011.84 1011.47 1011.07 1010.64 1010.20
1005.78 1005.81 1005.97 1006.25 1006.63 1007.08 1007.59 1008.13 1008.68 1009.24 1009.77 1010.27 1010.73 1011.14 1011.50 1011.80 1012.05 1012.25 1012.41 1012.53 1012.62 1012.69 1012.74 1012.79 1012.84 1012.88 1012.91 1012.94 1012.96 1012.97 1012.97 1012.94 1012.88 1012.80 1012.68 1012.52 1012.33 1012.09 1011.80 1011.48 1011.12 1010.74 1010.33 1009.93
1004.92 1005.05 1005.32 1005.72 1006.21 1006.77 1007.38 1008.01 1008.63 1009.24 1009.82 1010.34 1010.82 1011.23 1011.57 1011.86 1012.09 1012.26 1012.39 1012.48 1012.53 1012.56 1012.58 1012.59 1012.60 1012.61 1012.61 1012.62 1012.62 1012.61 1012.59 1012.55 1012.48 1012.39 1012.26 1012.10 1011.89 1011.65 1011.37 1011.06 1010.72 1010.37 1010.01 1009.65
1004.32 1004.51 1004.86 1005.32 1005.89 1006.52 1007.18 1007.86 1008.53 1009.16 1009.75 1010.29 1010.75 1011.15 1011.48 1011.74 1011.94 1012.08 1012.18 1012.23 1012.25 1012.25 1012.24 1012.22 1012.21 1012.20 1012.19 1012.19 1012.18 1012.17 1012.14 1012.10 1012.03 1011.93 1011.80 1011.63 1011.42 1011.18 1010.91 1010.62 1010.32 1010.01 1009.70 1009.41
1004.07 1004.31 1004.70 1005.20 1005.79 1006.44 1007.12 1007.81 1008.47 1009.10 1009.67 1010.18 1010.62 1010.99 1011.28 1011.50 1011.65 1011.75 1011.80 1011.82 1011.81 1011.79 1011.76 1011.73 1011.71 1011.70 1011.70 1011.70 1011.71 1011.70 1011.68 1011.64 1011.57 1011.46 1011.33 1011.15 1010.95 1010.71 1010.46 1010.20 1009.94 1009.68 1009.44 1009.22
1004.21 1004.48 1004.88 1005.39 1005.97 1006.60 1007.25 1007.90 1008.52 1009.10 1009.63 1010.08 1010.47 1010.77 1011.01 1011.17 1011.27 1011.33 1011.34 1011.32 1011.28 1011.24 1011.20 1011.18 1011.17 1011.18 1011.19 1011.21 1011.24 1011.24 1011.23 1011.20 1011.13 1011.02 1010.87 1010.70 1010.50 1010.27 1010.05 1009.82 1009.60 1009.40 1009.22 1009.06
1004.67 1004.96 1005.36 1005.84 1006.38 1006.95 1007.54 1008.12 1008.67 1009.17 1009.62 1010.00 1010.31 1010.55 1010.71 1010.82 1010.86 1010.87 1010.84 1010.79 1010.74 1010.69 1010.66 1010.65 1010.66 1010.68 1010.72 1010.77 1010.81 1010.83 1010.83 1010.79 1010.72 1010.60 1010.45 1010.27 1010.07 1009.87 1009.66 1009.47 1009.30 1009.15 1009.04 1008.95
1005.34 1005.63 1006.01 1006.45 1006.92 1007.42 1007.92 1008.40 1008.86 1009.27 1009.63 1009.93 1010.16 1010.32 1010.43 1010.47 1010.47 1010.44 1010.38 1010.32 1010.26 1010.22 1010.19 1010.20 1010.23 1010.27 1010.34 1010.40 1010.45 1010.48 1010.47 1010.43 1010.34 1010.22 1010.06 1009.87 1009.68 1009.48 1009.30 1009.15 1009.03 1008.94 1008.89 1008.86
1006.06 1006.35 1006.69 1007.07 1007.47 1007.88 1008.28 1008.67 1009.02 1009.34 1009.62 1009.84 1010.00 1010.11 1010.16 1010.17 1010.14 1010.09 1010.02 1009.96 1009.90 1009.87 1009.86 1009.88 1009.92 1009.98 1010.06 1010.12 1010.17 1010.18 1010.16 1010.10 1009.99 1009.85 1009.67 1009.48 1009.29 1009.11 1008.96 1008.84 1008.77 1008.74 1008.75 1008.78
1006.71 1006.98 1007.28 1007.59 1007.91 1008.23 1008.54 1008.83 1009.11 1009.35 1009.55 1009.72 1009.83 1009.91 1009.94 1009.93 1009.90 1009.84 1009.78 1009.73 1009.69 1009.67 1009.67 1009.70 1009.75 1009.81 1009.87 1009.92 1009.95 1009.94 1009.88 1009.79 1009.65 1009.48 1009.29 1009.10 1008.91 1008.75 1008.63 1008.55 1008.53 1008.55 1008.62 1008.71
1007.21 1007.45 1007.69 1007.94 1008.18 1008.42 1008.65 1008.88 1009.08 1009.27 1009.43 1009.57 1009.66 1009.73 1009.76 1009.76 1009.74 1009.71 1009.67 1009.63 1009.61 1009.60 1009.61 1009.64 1009.68 1009.73 1009.76 1009.78 1009.76 1009.71 1009.62 1009.48 1009.31 1009.12 1008.91 1008.72 1008.54 1008.40 1008.32 1008.28 1008.31 1008.39 1008.51 1008.65
Thickness
5763 5773 5779 5778 5780 5784 5777 5769 5757 5761 5765 5773 5783 5787 5790 5791 5789 5787 5785 5784 5784 5783 5782 5783 5783 5783 5782 5780 5779 5778 5775 5771 5769 5768 5766 5764 5762 5760 5758 5756 5754 5751 5747 5745
5756 5769 5771 5769 5775 5778 5777 5776 5769 5767 5765 5780 5784 5784 5783 5783 5783 5779 5778 5779 5780 5780 5777 5776 5776 5775 5775 5774 5773 5772 5769 5766 5765 5763 5761 5759 5757 5755 5753 5750 5748 5745 5742 5739
5731 5750 5755 5744 5762 5766 5766 5771 5768 5757 5762 5773 5773 5774 5773 5775 5776 5776 5773 5772 5773 5774 5773 5771 5771 5770 5768 5768 5767 5765 5763 5761 5759 5757 5755 5753 5752 5749 5746 5744 5741 5738 5736 5734
5721 5730 5720 5742 5769 5771 5765 5765 5768 5765 5765 5769 5769 5769 5770 5772 5770 5769 5769 5768 5768 5768 5767 5766 5765 5765 5764 5762 5760 5757 5755 5754 5753 5751 5748 5747 5744 5742 5740 5737 5734 5732 5730 5729
5708 5709 5719 5743 5760 5763 5752 5747 5761 5759 5760 5762 5764 5760 5757 5765 5766 5765 5765 5765 5764 5764 5762 5760 5758 5756 5754 5752 5751 5748 5745 5745 5745 5743 5742 5740 5737 5735 5734 5731 5728 5726 5724 5722
5705 5705 5705 5730 5758 5768 5754 5731 5753 5756 5752 5753 5752 5734 5739 5755 5759 5759 5759 5759 5757 5756 5754 5751 5750 5749 5745 5741 5739 5738 5738 5738 5738 5738 5736 5733 5731 5729 5726 5724 5721 5720 5717 5715
5700 5700 5711 5740 5756 5757 5725 5724 5747 5749 5747 5746 5740 5738 5743 5749 5750 5750 5750 5749 5749 5747 5744 5743 5743 5741 5736 5732 5730 5732 5732 5731 5730 5729 5728 5726 5724 5721 5718 5716 5713 5711 5709 5707
5693 5691 5702 5741 5744 5733 5729 5741 5743 5743 5742 5739 5738 5739 5739 5739 5739 5739 5738 5738 5738 5736 5734 5734 5734 5731 5727 5724 5725 5726 5724 5722 5721 5720 5719 5718 5714 5712 5709 5706 5703 5701 5698 5697
5699 5702 5721 5735 5736 5738 5738 5736 5737 5735 5734 5733 5730 5730 5730 5730 5730 5730 5730 5729 5728 5726 5723 5723 5723 5722 5717 5717 5717 5716 5714 5712 5711 5711 5709 5707 5704 5701 5699 5697 5693 5691 5688 5686
5699 5707 5719 5726 5731 5734 5735 5733 5734 5733 5730 5728 5724 5723 5721 5722 5721 5722 5722 5721 5719 5715 5712 5711 5712 5711 5710 5709 5708 5707 5704 5702 5701 5699 5698 5697 5695 5692 5689 5686 5683 5681 5678 5676
5692 5701 5709 5716 5720 5724 5727 5727 5726 5726 5725 5722 5719 5716 5715 5713 5712 5713 5712 5711 5710 5706 5704 5703 5703 5701 5701 5699 5698 5696 5694 5693 5692 5690 5688 5686 5684 5682 5680 5678 5676 5672 5670 5668
5683 5695 5695 5700 5712 5717 5717 5716 5717 5717 5715 5714 5712 5709 5707 5704 5704 5703 5703 5702 5700 5698 5697 5695 5694 5691 5691 5689 5688 5686 5684 5683 5682 5680 5678 5676 5673 5671 5671 5670 5669 5667 5664 5661
5694 5699 5698 5702 5707 5710 5709 5709 5711 5710 5707 5705 5705 5704 5700 5697 5696 5696 5695 5693 5691 5689 5688 5687 5684 5682 5681 5680 5679 5677 5675 5674 5673 5671 5669 5666 5663 5661 5659 5659 5659 5658 5656 5653
5696 5696 5692 5694 5696 5701 5703 5703 5704 5702 5701 5699 5697 5695 5692 5690 5689 5687 5686 5687 5685 5681 5679 5677 5674 5672 5673 5673 5671 5668 5667 5666 5665 5663 5661 5659 5656 5654 5651 5649 5647 5647 5647 5645
5688 5690 5688 5689 5691 5692 5694 5693 5691 5689 5690 5689 5689 5686 5684 5682 5679 5679 5679 5678 5676 5672 5670 5668 5665 5664 5665 5665 5663 5661 5658 5657 5656 5654 5652 5650 5648 5646 5643 5641 5639 5637 5636 5635
5681 5683 5683 5682 5681 5683 5684 5684 5681 5679 5680 5679 5678 5677 5676 5675 5673 5672 5670 5669 5665 5662 5661 5659 5657 5657 5657 5656 5653 5651 5650 5650 5648 5645 5643 5641 5639 5636 5634 5631 5629 5628 5627 5626
5672 5671 5672 5671 5673 5674 5675 5676 5674 5673 5673 5672 5671 5670 5669 5667 5664 5662 5661 5660 5658 5656 5654 5651 5650 5649 5648 5647 5644 5642 5640 5639 5639 5636 5634 5633 5631 5628 5626 5624 5621 5620 5620 5619
5672 5671 5671 5669 5667 5667 5667 5668 5667 5666 5664 5665 5664 5662 5660 5658 5655 5654 5652 5651 5649 5647 5645 5644 5643 5641 5640 5638 5636 5633 5631 5630 5628 5627 5627 5625 5623 5621 5619 5617 5615 5613 5612 5611
5668 5667 5666 5666 5665 5663 5661 5660 5660 5659 5659 5657 5656 5653 5652 5650 5647 5646 5644 5642 5639 5636 5637 5637 5636 5633 5631 5629 5628 5626 5624 5622 5621 5621 5619 5618 5616 5614 5612 5609 5607 5606 5605 5602
5660 5660 5660 5658 5658 5656 5654 5654 5653 5652 5651 5650 5648 5645 5642 5641 5640 5637 5635 5633 5631 5631 5631 5630 5628 5625 5623 5622 5621 5618 5616 5615 5614 5612 5611 5609 5607 5605 5604 5603 5601 5599 5596 5594
5652 5652 5651 5649 5649 5649 5648 5647 5646 5644 5643 5642 5639 5637 5635 5634 5632 5630 5626 5623 5624 5625 5623 5622 5619 5617 5616 5614 5613 5610 5609 5607 5606 5604 5603 5601 5599 5598 5596 5595 5593 5591 5588 5586
5643 5643 5642 5642 5641 5640 5641 5641 5639 5637 5636 5634 5632 5630 5628 5626 5624 5621 5620 5618 5618 5617 5615 5613 5611 5610 5608 5607 5605 5603 5601 5600 5598 5597 5595 5594 5592 5591 5589 5587 5585 5582 5580 5578
5635 5635 5635 5634 5634 5633 5634 5633 5632 5631 5629 5627 5625 5623 5621 5619 5616 5613 5610 5611 5610 5609 5607 5605 5604 5603 5601 5599 5597 5595 5593 5591 5590 5589 5588 5587 5586 5584 5582 5580 5578 5576 5573 5571
5627 5628 5629 5628 5628 5626 5624 5624 5624 5623 5622 5621 5619 5618 5615 5612 5609 5608 5606 5605 5603 5602 5599 5597 5596 5595 5593 5590 5588 5586 5585 5584 5582 5582 5581 5580 5579 5577 5575 5573 5571 5569 5567 5564
5620 5621 5621 5620 5618 5617 5617 5617 5616 5615 5613 5612 5611 5610 5609 5607 5603 5601 5600 5598 5597 5594 5592 5591 5589 5588 5586 5583 5581 5580 5579 5578 5577 5576 5575 5574 5572 5570 5569 5567 5565 5562 5560 5558
5613 5613 5613 5613 5612 5611 5610 5609 5607 5605 5604 5603 5602 5602 5601 5599 5598 5595 5594 5592 5590 5588 5586 5584 5583 5582 5580 5578 5577 5576 5575 5573 5572 5571 5570 5568 5566 5564 5562 5560 5560 5557 5555 5552
5607 5607 5606 5606 5606 5606 5604 5602 5600 5599 5597 5596 5594 5593 5593 5592 5590 5588 5587 5585 5583 5581 5580 5578 5577 5577 5575 5574 5572 5571 5569 5568 5566 5565 5564 5562 5560 5558 5556 5555 5553 5552 5549 5547